[[{"header":{"parameterUnit":"m.s-1","parameterCategory":1,"la1":30.2991,"la2":30.254,"lo1":-89.0895,"lo2":-89.0444,"dy":0.0017,"dx":0.0017,"nx":28,"ny":28,"refTime":"2024-08-22T21:00:00:Z","depth":0,"parameterNumber":2,"parameterNumberName":"U-component_of_WINDS"},"data":[0,0,0,0,0,0,0,0,0,0,0,0,0,0,0,0,0,0,0,0,0,0,0,0,0,0,0,0,0,0,0,0,0,0,0,0,0,0,0,0,0,0,0,0,0,0,0,0,0,0,0,0,0,0,0,0,0,0,-6.1919,-6.1919,0,-6.1939,-6.1939,-6.1939,-6.1812,-6.1809,-6.1805,-6.1802,-6.1819,-6.1823,-6.1826,0,0,0,0,0,0,0,0,0,0,0,0,0,-6.1767,-6.1771,-6.1919,-6.1919,-6.192,-6.1939,-6.1939,-6.1939,-6.1813,-6.1809,-6.1804,-6.18,-6.1818,-6.1822,-6.1827,0,0,0,0,0,0,0,0,0,0,0,0,0,-6.1815,-6.1772,-6.1919,-6.1859,-6.1854,-6.1939,-6.1939,-6.194,-6.1814,-6.1809,-6.1803,-6.1798,-6.1816,-6.1822,-6.1827,-6.197,0,0,-6.1845,-6.1847,0,0,0,0,0,0,0,0,-6.1812,-6.1821,-6.1868,-6.1863,-6.1858,-6.1868,-6.1892,-6.195,-6.1815,-6.1829,-6.1802,-6.1796,-6.1839,-6.1843,-6.1858,-6.1971,-6.1972,-6.1845,-6.1849,-6.1851,-6.1853,0,0,0,0,0,0,0,-6.1809,-6.1819,-6.1927,-6.1868,-6.1862,-6.1829,-6.183,-6.1902,-6.1864,-6.1827,-6.1818,-6.1822,-6.1835,-6.1853,-6.1858,-6.1972,-6.1845,-6.185,-6.1854,-6.1856,-6.22,-6.2205,0,0,0,0,0,0,-6.1815,-6.1817,-6.1926,-6.1927,-6.1821,-6.1837,-6.1838,-6.187,-6.1863,-6.1857,-6.1827,-6.1816,-6.1846,-6.1851,-6.1858,-6.2022,-6.1851,-6.1856,-6.186,-6.2194,-6.2201,-6.2207,0,0,0,0,0,0,-6.1812,-6.1826,-6.1925,-6.187,-6.188,-6.1845,-6.1882,-6.1873,-6.189,-6.1863,-6.1855,-6.1852,-6.1842,-6.185,-6.1943,-6.202,-6.1859,-6.1864,-6.2187,-6.2196,-6.2204,-6.2353,0,0,0,0,0,0,-6.1808,-6.1825,-6.188,-6.1872,-6.1884,-6.2012,-6.1887,-6.1877,-6.1901,-6.1887,-6.1884,-6.1878,-6.1838,-6.1935,-6.1948,-6.2025,-6.1869,-6.218,-6.2191,-6.2201,-6.234,-6.2365,-6.2386,0,0,0,0,0,-6.1803,-6.1921,-6.1884,-6.1898,-6.1952,-6.2016,-6.2023,-6.1975,-6.1908,-6.1962,-6.1944,-6.1878,-6.2011,-6.1945,-6.196,-6.204,-6.2175,-6.2188,-6.22,-6.233,-6.236,-6.2386,0,0,0,0,0,0,-6.1938,-6.1919,-6.1877,-6.1997,-6.2009,-6.1995,-6.2061,-6.2009,-6.204,-6.2026,-6.1964,-6.1965,-6.2067,-6.2063,-6.1991,-6.2176,-6.2081,-6.2097,-6.2175,-6.2203,-6.2225,-6.2223,-6.1873,0,0,0,0,0,-6.1983,-6.2038,-6.2018,-6.2125,-6.2133,-6.2097,-6.2123,-6.2086,-6.2096,-6.21,-6.2089,-6.21,-6.2143,-6.2173,-6.2212,-6.234,-6.2336,-6.2402,-6.2425,-6.2444,-6.2458,-6.2522,-6.255,-6.2249,-6.2249,-6.2249,0,0,-6.2073,-6.207,-6.2108,-6.2152,-6.2157,-6.2214,-6.2102,-6.2168,-6.2208,-6.2109,-6.2195,-6.2189,-6.2197,-6.2307,-6.2355,-6.2307,-6.2541,-6.2461,-6.2476,-6.2479,-6.2538,-6.2567,-6.2592,-6.2258,-6.2256,-6.2255,0,0,-6.2267,-6.2272,-6.236,-6.2368,-6.2377,-6.2352,-6.2374,-6.2367,-6.2359,-6.2445,-6.2371,-6.2419,-6.2496,-6.2504,-6.2519,-6.2716,-6.2656,-6.273,-6.2849,-6.2912,-6.2936,-6.2956,-6.3023,-6.3049,-6.2745,-6.2745,-6.2746,0,-6.2378,-6.2462,-6.2412,-6.2482,-6.2502,-6.2416,-6.2504,-6.2513,-6.2535,-6.255,-6.2497,-6.2591,-6.2591,-6.27,-6.2748,-6.2764,-6.2784,-6.2729,-6.2937,-6.2957,-6.2975,-6.3038,-6.3064,-6.2754,-6.2753,-6.2752,-6.2751,0,-6.2596,-6.2656,-6.2726,-6.2749,-6.2778,-6.2857,-6.2816,-6.2851,-6.2811,-6.2791,-6.2879,-6.2876,-6.2912,-6.2936,-6.2898,-6.304,-6.3009,-6.2948,-6.285,-6.3014,-6.3072,-6.3096,-6.2766,-6.2763,-6.2761,-6.2759,0,0,-6.2874,-6.2869,-6.2895,-6.2903,-6.2908,-6.2952,-6.3026,-6.3062,-6.3091,-6.311,-6.3168,-6.3236,-6.3178,-6.3195,-6.3157,-6.3214,-6.3366,-6.3144,-6.3143,-6.3182,-6.3519,-6.3563,-6.3592,-6.3328,-6.3332,-6.3336,-6.3517,0,-6.306,-6.3187,-6.3143,-6.3272,-6.3324,-6.3244,-6.3308,-6.3317,-6.3301,-6.3342,-6.3323,-6.3371,-6.3293,-6.3302,-6.3355,-6.3337,-6.3432,-6.3323,-6.3379,-6.3382,-6.3376,-6.3622,-6.3669,-6.384,-6.354,-6.3544,-6.3546,0,-6.3294,-6.3322,-6.3456,-6.3449,-6.3469,-6.3528,-6.3556,-6.3598,-6.3605,-6.3589,-6.3609,-6.3558,-6.3629,-6.3534,-6.3629,-6.3556,-6.3577,-6.3571,-6.3577,-6.3577,-6.3471,-6.3626,-6.3893,-6.3918,-6.3582,-6.3579,-6.3577,0,-6.3479,-6.355,-6.3638,-6.3648,-6.3644,-6.3687,-6.3687,-6.369,-6.3713,-6.3738,-6.3752,-6.3785,-6.3803,-6.3829,-6.3788,-6.3724,-6.3888,-6.3791,-6.3874,-6.3875,-6.3909,-6.3906,-6.418,-6.3929,-6.3929,-6.3928,-6.3928,0,-6.3689,-6.3773,-6.372,-6.3774,-6.3865,-6.3814,-6.3905,-6.3896,-6.39,-6.3949,-6.3883,-6.3931,-6.3876,-6.3918,-6.3888,-6.3969,-6.3978,-6.3965,-6.3955,-6.3969,-6.397,-6.3979,-6.3964,-6.3935,-6.3934,-6.3932,-6.3931,0,-6.3909,-6.3878,-6.3968,-6.3957,-6.3956,-6.4023,-6.4013,-6.4061,-6.4041,-6.4104,-6.4116,-6.4084,-6.413,-6.4093,-6.4139,-6.4118,-6.4224,-6.42,-6.4221,-6.4213,-6.4297,-6.4288,-6.4582,-6.4617,-6.4348,-6.4351,-6.4353,0,-6.4043,-6.4106,-6.4102,-6.413,-6.4134,-6.4182,-6.4205,-6.4158,-6.4185,-6.4199,-6.4245,-6.4286,-6.4315,-6.4393,-6.4373,-6.4407,-6.4379,-6.4481,-6.4384,-6.4395,-6.4376,-6.4372,-6.4376,-6.4499,-6.4502,-6.4504,-6.4507,0,-6.4284,-6.4265,-6.4302,-6.4334,-6.4364,-6.4387,-6.4404,-6.4431,-6.4383,-6.4417,-6.4463,-6.4486,-6.4532,-6.4573,-6.46,-6.4598,-6.4544,-6.4538,-6.4558,-6.457,-6.4579,-6.4572,-6.427,-6.453,-6.4528,-6.4526,-6.4525,-6.4524,-6.4462,-6.4513,-6.4517,-6.456,-6.4568,-6.4586,-6.463,-6.4616,-6.4654,-6.4687,-6.4658,-6.4713,-6.4718,-6.4749,-6.4754,-6.4796,-6.4754,-6.4784,-6.4791,-6.4798,-6.4809,-6.4576,-6.4801,-6.48,-6.48,-6.4799,-6.4799,0,-6.4695,-6.4694,-6.4735,-6.4761,-6.4795,-6.4743,-6.4759,-6.479,-6.4839,-6.4849,-6.488,-6.4932,-6.4971,-6.4955,-6.4988,-6.5025,-6.5,-6.5035,-6.5029,-6.5029,-6.4846,-6.4823,-6.5054,-6.5054,-6.5054,-6.5054,-6.5054,-6.5053,-6.4821,-6.4902,-6.4884,-6.4969,-6.4967,-6.5021,-6.5034,-6.505,-6.5057,-6.5119,-6.5151,-6.514,-6.5139,-6.5172,-6.5204,-6.5198,-6.5212,-6.5255,-6.524,-6.5068,-6.5043,-6.5019,-6.4996,-6.526,-6.526,-6.5419,-6.542,-6.5421]},{"header":{"parameterUnit":"m.s-1","parameterCategory":1,"la1":30.2991,"la2":30.254,"lo1":-89.0895,"lo2":-89.0444,"dy":0.0017,"dx":0.0017,"nx":28,"ny":28,"refTime":"2024-08-22T21:00:00:Z","depth":0,"parameterNumber":3,"parameterNumberName":"V-component_of_WINDS"},"data":[0,0,0,0,0,0,0,0,0,0,0,0,0,0,0,0,0,0,0,0,0,0,0,0,0,0,0,0,0,0,0,0,0,0,0,0,0,0,0,0,0,0,0,0,0,0,0,0,0,0,0,0,0,0,0,0,0,0,-1.1292,-1.1294,0,-1.1495,-1.1497,-1.15,-1.1602,-1.1602,-1.1602,-1.1602,-1.1808,-1.1813,-1.1819,0,0,0,0,0,0,0,0,0,0,0,0,0,-1.0989,-1.0994,-1.1291,-1.1294,-1.1296,-1.1495,-1.1497,-1.15,-1.1602,-1.1602,-1.1602,-1.1602,-1.1806,-1.1813,-1.1819,0,0,0,0,0,0,0,0,0,0,0,0,0,-1.1149,-1.0996,-1.1291,-1.1371,-1.138,-1.1494,-1.1498,-1.1501,-1.1602,-1.1602,-1.1602,-1.1602,-1.1804,-1.1812,-1.182,-1.1869,0,0,-1.1845,-1.1848,0,0,0,0,0,0,0,0,-1.114,-1.116,-1.1357,-1.1366,-1.1376,-1.1523,-1.1467,-1.1624,-1.1602,-1.1518,-1.1602,-1.1602,-1.1713,-1.1729,-1.1767,-1.1878,-1.1887,-1.1846,-1.1851,-1.1854,-1.1856,0,0,0,0,0,0,0,-1.1129,-1.1152,-1.1372,-1.136,-1.1372,-1.1397,-1.1419,-1.1497,-1.1612,-1.1525,-1.1533,-1.1556,-1.1718,-1.1758,-1.1772,-1.189,-1.1845,-1.1853,-1.1858,-1.1861,-1.2053,-1.2053,0,0,0,0,0,0,-1.1105,-1.1142,-1.1365,-1.1378,-1.1256,-1.1402,-1.1427,-1.1476,-1.1612,-1.1633,-1.1556,-1.156,-1.1745,-1.1763,-1.178,-1.1846,-1.1854,-1.1862,-1.1866,-1.2052,-1.2053,-1.2053,0,0,0,0,0,0,-1.1098,-1.1124,-1.1357,-1.1262,-1.1294,-1.1407,-1.1461,-1.148,-1.152,-1.1635,-1.1656,-1.1575,-1.1745,-1.1768,-1.1846,-1.1855,-1.1865,-1.1873,-1.2052,-1.2053,-1.2053,-1.1979,0,0,0,0,0,0,-1.1089,-1.1121,-1.1141,-1.1262,-1.1299,-1.142,-1.1461,-1.1484,-1.1534,-1.1542,-1.1659,-1.1679,-1.1747,-1.1833,-1.1854,-1.1866,-1.1879,-1.2052,-1.2052,-1.2053,-1.1981,-1.1977,-1.1973,0,0,0,0,0,-1.1078,-1.1111,-1.1141,-1.1167,-1.1326,-1.1421,-1.1442,-1.1521,-1.1535,-1.1555,-1.1629,-1.1675,-1.185,-1.1841,-1.1865,-1.1879,-1.2052,-1.2052,-1.2053,-1.1983,-1.1977,-1.1973,0,0,0,0,0,0,-1.0986,-1.1128,-1.1163,-1.1237,-1.1316,-1.1438,-1.1466,-1.1512,-1.1588,-1.1592,-1.1686,-1.1712,-1.1781,-1.1838,-1.1825,-1.1934,-1.1956,-1.1961,-1.1894,-1.189,-1.1886,-1.1871,-1.1886,0,0,0,0,0,-1.0975,-1.1041,-1.1161,-1.1214,-1.1252,-1.1352,-1.1396,-1.1451,-1.1536,-1.157,-1.1649,-1.173,-1.1804,-1.185,-1.1924,-1.199,-1.2017,-1.2012,-1.2008,-1.2004,-1.2007,-1.2047,-1.2047,-1.2055,-1.2055,-1.2055,0,0,-1.0952,-1.1037,-1.1073,-1.1198,-1.1266,-1.1331,-1.138,-1.1447,-1.1496,-1.158,-1.1659,-1.172,-1.1816,-1.1888,-1.1924,-1.1938,-1.2011,-1.2004,-1.2,-1.2006,-1.2048,-1.2047,-1.2046,-1.2055,-1.2055,-1.2055,0,0,-1.0943,-1.1014,-1.1067,-1.1134,-1.1237,-1.1303,-1.1316,-1.1431,-1.1475,-1.1556,-1.162,-1.168,-1.1805,-1.1871,-1.1921,-1.1938,-1.1983,-1.196,-1.1938,-1.1976,-1.1976,-1.1975,-1.1982,-1.1984,-1.1963,-1.1963,-1.1963,0,-1.0901,-1.1003,-1.1088,-1.1152,-1.1205,-1.1285,-1.1339,-1.14,-1.152,-1.1555,-1.1569,-1.1728,-1.1799,-1.1888,-1.1892,-1.193,-1.1947,-1.1947,-1.1969,-1.197,-1.1971,-1.1978,-1.1981,-1.1959,-1.196,-1.196,-1.196,0,-1.0946,-1.1016,-1.1046,-1.1162,-1.1219,-1.1277,-1.1371,-1.1418,-1.1467,-1.1532,-1.1613,-1.1701,-1.1794,-1.182,-1.1868,-1.1916,-1.1922,-1.1951,-1.1975,-1.1965,-1.1974,-1.1977,-1.1954,-1.1955,-1.1956,-1.1957,0,0,-1.0885,-1.1048,-1.1058,-1.1112,-1.1231,-1.1287,-1.1349,-1.1442,-1.148,-1.1561,-1.1616,-1.172,-1.1748,-1.1805,-1.1861,-1.1895,-1.1904,-1.192,-1.1924,-1.1915,-1.1963,-1.194,-1.1942,-1.1934,-1.1935,-1.1936,-1.1955,0,-1.0893,-1.101,-1.1088,-1.1173,-1.1239,-1.1316,-1.1371,-1.145,-1.1512,-1.1577,-1.1645,-1.1718,-1.175,-1.1785,-1.1821,-1.1895,-1.1915,-1.1894,-1.1986,-1.1988,-1.196,-1.1947,-1.1923,-1.1937,-1.1959,-1.196,-1.196,0,-1.0918,-1.0998,-1.109,-1.1203,-1.1234,-1.1281,-1.1373,-1.1434,-1.1525,-1.1568,-1.1632,-1.169,-1.1759,-1.1777,-1.1873,-1.1858,-1.19,-1.1942,-1.1945,-1.1956,-1.1973,-1.1958,-1.1943,-1.1945,-1.1966,-1.1966,-1.1965,0,-1.0864,-1.0995,-1.1067,-1.1111,-1.1245,-1.1276,-1.1334,-1.1425,-1.1476,-1.1556,-1.159,-1.1677,-1.1724,-1.1789,-1.1869,-1.1875,-1.1958,-1.1982,-1.1996,-1.1994,-1.201,-1.2008,-1.2001,-1.2036,-1.2036,-1.2036,-1.2036,0,-1.0865,-1.0918,-1.1045,-1.1089,-1.1151,-1.1241,-1.13,-1.1364,-1.1445,-1.1503,-1.1574,-1.1627,-1.173,-1.1795,-1.1858,-1.1929,-1.1949,-1.1986,-1.2002,-1.198,-1.1975,-1.2009,-1.201,-1.2037,-1.2036,-1.2036,-1.2036,0,-1.0815,-1.0902,-1.0986,-1.1107,-1.1138,-1.1179,-1.1282,-1.1328,-1.1395,-1.1467,-1.1489,-1.1594,-1.1675,-1.1761,-1.1871,-1.1913,-1.1981,-1.2004,-1.195,-1.196,-1.1969,-1.1967,-1.1984,-1.1991,-1.202,-1.2019,-1.2019,0,-1.081,-1.0853,-1.0979,-1.1023,-1.1079,-1.1149,-1.1202,-1.1293,-1.1345,-1.1453,-1.1486,-1.1572,-1.1646,-1.1772,-1.1857,-1.1942,-1.1967,-1.1967,-1.198,-1.1957,-1.1968,-1.1964,-1.1969,-1.1963,-1.1962,-1.1961,-1.1961,0,-1.0791,-1.0832,-1.0906,-1.0996,-1.1057,-1.1131,-1.1209,-1.1241,-1.1347,-1.1401,-1.1486,-1.1543,-1.1656,-1.1741,-1.1836,-1.1895,-1.1946,-1.1956,-1.1964,-1.1942,-1.1909,-1.1928,-1.194,-1.1955,-1.1956,-1.1956,-1.1957,-1.1957,-1.0764,-1.0806,-1.0901,-1.0982,-1.105,-1.112,-1.117,-1.1244,-1.1316,-1.1415,-1.1465,-1.1548,-1.164,-1.1774,-1.1831,-1.1898,-1.1913,-1.1924,-1.1927,-1.1928,-1.1923,-1.1899,-1.1916,-1.1916,-1.1916,-1.1916,-1.1917,0,-1.0749,-1.0815,-1.0888,-1.0994,-1.1057,-1.1101,-1.1189,-1.1239,-1.1312,-1.1394,-1.1466,-1.1563,-1.1646,-1.1739,-1.1828,-1.1864,-1.1889,-1.1884,-1.1882,-1.1895,-1.1904,-1.1889,-1.1862,-1.1862,-1.1862,-1.1862,-1.1862,-1.1862,-1.0748,-1.0823,-1.0875,-1.0984,-1.105,-1.1133,-1.118,-1.1246,-1.1312,-1.1418,-1.1488,-1.1548,-1.1635,-1.1731,-1.1809,-1.1835,-1.1864,-1.1852,-1.1884,-1.189,-1.1894,-1.1899,-1.1885,-1.1858,-1.1858,-1.187,-1.187,-1.187]}]]